Weather History for KLNK - December, 2012

Change the Weather History Date:

Tuesday, December 18, 2012

  Actual Average Record
Temperature  
Mean Temperature 35 °F 26 °F  
Max Temperature 50 °F 36 °F 68 °F (1976)
Min Temperature 19 °F 16 °F -18 °F (1983)
Degree Days  
Heating Degree Days 30 39  
Month to date heating degree days 523 665  
Since 1 July heating degree days 1807 1926  
Cooling Degree Days 0 0  
Month to date cooling degree days 0 0  
Year to date cooling degree days 1491 1173  
Moisture  
Dew Point 27 °F    
Average Humidity 72    
Maximum Humidity 92    
Minimum Humidity 52    
Precipitation  
Precipitation 0.00 in 0.03 in 1.25 in (1968)
Month to date precipitation 0.86 0.60  
Year to date precipitation 18.50 28.60  
Snow  
Snow 0.00 in 0.20 in - ()
Month to date snowfall T 3.4  
Since 1 July snowfall T 6.2  
Snow Depth 0.00 in    
Sea Level Pressure  
Sea Level Pressure 29.72 in    
Wind  
Wind Speed 6 mph (NNW)    
Max Wind Speed 23 mph    
Max Gust Speed 29 mph    
Visibility 9 miles    
Events      
T = Trace of Precipitation, MM = Missing Value Source: NWS Daily Summary

Daily Weather History Graph

Daily Weather History Graph

Search for Another Location

Airport or City:

Trip Planner

Search our weather history database for the weather conditions in past years. The results will help you decide how hot, cold, wet, or windy it might be!

Date:

Astronomy

Dec. 18, 2012 Rise Set
Actual Time 7:46 AM CST 5:01 PM CST
Civil Twilight 7:15 AM CST 5:32 PM CST
Nautical Twilight 6:41 AM CST 6:06 PM CST
Astronomical Twilight 6:07 AM CST 6:40 PM CST
Moon 11:24 AM CST (12/18) 11:30 PM CST (12/18)
Length of Visible Light 10h 16m
Length of Day
9h 14m
Waxing Crescent, 35% of the Moon is Illuminated
Dec 18
Waxing Crescent
Dec 19
First Quarter
Dec 28
Full
Jan 4
Last Quarter
Jan 11
New

Hourly Weather History & Observations

Time (CST) Temp. Windchill Dew Point Humidity Pressure Visibility Wind Dir Wind Speed Gust Speed Precip Events Conditions
12:54 AM 21.0 °F 14.6 °F 19.0 °F 92% 29.57 in 5.0 mi NE 4.6 mph - N/A   Clear
1:54 AM 24.1 °F - 21.9 °F 91% 29.56 in 5.0 mi Calm Calm - N/A   Clear
2:54 AM 21.0 °F - 18.0 °F 88% 29.55 in 5.0 mi Calm Calm - N/A   Clear
3:54 AM 21.0 °F - 19.0 °F 92% 29.53 in 6.0 mi Calm Calm - N/A   Clear
4:54 AM 21.2 °F - 19.4 °F 93% 29.50 in 5.0 mi Calm Calm - N/A   Clear
5:54 AM 30.2 °F - 26.6 °F 86% 29.51 in 10.0 mi Calm Calm - N/A   Clear
6:54 AM 37.0 °F 28.5 °F 28.0 °F 70% 29.57 in 10.0 mi West 13.8 mph - N/A   Clear
7:54 AM 39.9 °F 30.2 °F 28.9 °F 65% 29.60 in 10.0 mi WNW 20.7 mph 26.5 mph N/A   Clear
8:54 AM 37.0 °F 27.4 °F 30.0 °F 76% 29.66 in 10.0 mi NW 17.3 mph 28.8 mph N/A   Clear
9:54 AM 37.9 °F 30.5 °F 28.9 °F 70% 29.71 in 10.0 mi NW 11.5 mph - N/A   Clear
10:54 AM 41.0 °F 33.9 °F 30.9 °F 67% 29.74 in 10.0 mi NW 12.7 mph - N/A   Clear
11:54 AM 44.1 °F 37.7 °F 33.1 °F 65% 29.74 in 10.0 mi NNW 12.7 mph 21.9 mph N/A   Clear
12:54 PM 46.9 °F - 34.0 °F 61% 29.73 in 10.0 mi NNW 15.0 mph - N/A   Clear
1:54 PM 48.0 °F - 33.1 °F 56% 29.73 in 10.0 mi NNW 19.6 mph - N/A   Clear
2:54 PM 50.0 °F - 33.1 °F 52% 29.77 in 10.0 mi NNW 10.4 mph - N/A   Clear
3:54 PM 50.0 °F - 33.1 °F 52% 29.79 in 10.0 mi Calm Calm - N/A   Clear
4:54 PM 41.0 °F 37.1 °F 30.9 °F 67% 29.81 in 10.0 mi NNE 5.8 mph - N/A   Clear
5:54 PM 36.0 °F - 30.0 °F 79% 29.84 in 10.0 mi Calm Calm - N/A   Clear
6:54 PM 30.0 °F - 27.0 °F 88% 29.86 in 10.0 mi Calm Calm - N/A   Clear
7:54 PM 30.9 °F - 28.0 °F 89% 29.86 in 10.0 mi Calm Calm - N/A   Scattered Clouds
8:54 PM 27.0 °F - 25.0 °F 92% 29.87 in 10.0 mi Calm Calm - N/A   Clear
9:54 PM 28.0 °F - 24.1 °F 85% 29.87 in 10.0 mi Calm Calm - N/A   Clear
10:54 PM 26.1 °F - 24.1 °F 92% 29.88 in 10.0 mi Calm Calm - N/A   Clear
11:54 PM 28.0 °F - 26.1 °F 92% 29.89 in 10.0 mi Calm Calm - N/A   Clear